Theta_e
339 337 336 334 336 332 330 332 332 332 332 331 329 327 327 327 329 330 331 331 331 331 331 331 331 330 331 332 331 331 331 333 332 332 333 329 334 341 338 338 338 336 333
338 337 335 334 337 336 326 326 327 327 329 335 336 339 333 328 328 329 328 329 332 334 332 332 333 335 335 331 330 331 328 329 332 335 330 334 334 339 340 344 342 339 334
339 336 334 335 335 336 333 329 328 331 336 336 338 337 336 335 333 329 330 334 333 334 333 332 333 334 336 336 333 333 333 333 330 330 334 335 334 335 336 343 348 339 338
341 336 334 336 337 337 330 331 336 336 335 335 334 336 337 336 335 334 333 333 333 331 331 331 330 330 331 334 336 335 333 337 338 336 334 335 336 337 336 341 343 337 338
338 333 336 338 337 333 332 336 337 336 338 339 339 338 337 335 333 332 332 331 330 328 326 326 327 328 329 328 331 335 336 333 338 343 340 334 335 332 337 337 335 335 337
333 334 337 335 333 333 337 336 336 332 333 336 336 334 332 328 327 327 327 328 329 330 332 333 333 332 331 331 331 329 333 338 341 347 342 342 341 347 338 332 338 333 334
338 335 336 335 333 336 337 330 329 328 328 327 329 328 327 328 329 330 333 335 336 335 335 335 335 335 335 335 333 332 331 331 341 345 346 343 346 347 342 336 335 337 335
343 335 335 335 333 337 341 334 331 329 327 327 327 328 328 331 335 337 339 340 340 341 341 341 341 338 336 336 337 338 336 332 338 346 347 348 345 346 340 337 334 333 334
348 335 333 333 335 341 341 339 337 336 331 329 328 329 334 337 340 343 343 344 345 345 345 345 345 344 343 342 342 342 343 339 341 346 348 347 347 345 344 340 338 335 337
351 344 334 334 334 334 337 337 337 335 330 329 329 335 340 343 346 348 348 348 348 347 348 348 346 345 345 345 344 343 343 344 345 347 348 348 349 348 347 346 341 342 342
347 337 334 333 332 334 335 336 335 331 330 328 332 340 349 348 349 351 350 350 350 348 348 346 345 345 346 350 349 345 344 349 347 351 349 350 349 349 347 346 341 340 343
346 346 336 332 331 332 337 336 335 330 345 343 339 342 348 351 348 349 351 352 353 354 346 349 347 348 348 350 352 349 348 350 350 351 349 350 350 349 346 343 341 341 342
349 348 348 349 340 342 346 348 346 342 346 347 344 343 347 352 349 351 353 352 354 352 350 349 349 346 349 347 350 352 350 350 352 352 351 351 348 342 343 346 343 341 342
349 348 349 349 348 346 348 349 345 347 348 348 348 343 348 352 350 350 351 353 352 352 354 347 351 349 341 348 352 353 349 353 354 351 352 344 335 335 334 338 343 346 346
347 348 349 349 348 348 345 348 346 348 349 348 347 349 345 345 350 352 353 353 354 354 354 355 352 351 351 350 353 351 352 352 352 352 350 342 345 341 337 336 337 340 342
348 348 349 349 349 348 345 347 346 348 347 346 346 347 349 348 353 353 350 351 352 353 354 355 354 352 352 351 352 354 351 350 352 350 350 351 349 343 340 341 338 338 337
347 347 348 349 349 348 347 347 346 348 347 346 347 349 349 351 347 348 350 352 353 353 353 355 351 353 347 353 353 355 354 352 349 350 349 353 347 348 347 346 343 341 338
347 348 348 349 349 349 348 347 348 344 346 348 347 348 351 351 350 346 349 351 352 352 354 356 354 353 348 347 352 353 351 351 352 351 350 352 351 351 350 348 345 343 340
347 348 349 349 350 351 350 343 341 342 345 347 348 349 350 351 352 349 350 354 353 353 353 352 354 352 350 353 352 352 347 349 351 351 351 351 352 349 349 348 350 347 343
346 348 349 350 350 350 351 348 339 337 345 348 349 350 351 352 353 353 351 351 353 354 350 352 352 349 349 351 352 349 349 340 349 349 350 351 353 349 347 350 352 348 348
344 346 347 348 349 348 349 348 342 338 347 347 349 348 351 354 357 356 350 349 354 353 350 352 350 348 350 352 352 347 345 341 346 342 340 349 352 348 351 350 350 350 348
344 344 345 346 347 347 346 347 345 337 348 348 345 349 350 353 352 350 349 351 354 353 348 351 347 345 346 347 351 349 346 344 343 346 347 350 350 351 349 350 352 352 351
343 343 343 345 345 347 346 346 344 341 348 349 349 349 349 352 349 349 348 354 352 351 352 349 347 343 340 350 352 351 344 344 340 338 340 341 340 348 350 352 352 352 351
343 343 343 344 346 346 346 345 344 347 349 350 350 350 349 350 349 349 348 356 356 352 352 354 351 342 341 349 351 353 352 350 343 342 339 343 348 352 352 353 354 352 354
344 344 345 345 345 344 345 343 343 349 349 349 350 349 349 348 347 347 349 350 355 354 350 348 352 349 348 349 350 354 351 348 345 349 341 344 347 350 350 355 354 354 353
345 345 345 346 347 347 341 342 346 350 349 350 349 350 349 349 348 346 349 351 356 355 345 351 351 349 345 344 345 353 352 351 350 349 350 348 346 350 351 352 352 352 353
Wind_Speed
25 25 24 22 19 19 20 20 19 19 18 15 13 13 14 15 14 14 13 12 10 8 7 7 6 4 3 3 3 4 6 7 6 4 3 3 4 5 8 9 9 9 7
30 28 24 22 20 19 19 19 18 15 14 13 12 11 13 14 13 13 12 9 9 8 7 5 4 4 4 4 3 4 4 7 7 7 7 7 6 5 7 6 5 8 6
31 29 25 21 20 19 18 16 15 13 13 13 14 14 13 13 12 11 10 8 7 6 5 4 4 4 4 4 5 6 8 8 9 11 10 10 8 6 4 7 7 6 8
31 30 26 22 21 19 17 16 14 13 13 14 14 14 13 13 12 11 10 8 6 5 4 3 2 2 3 4 4 7 8 9 9 9 7 5 6 8 5 5 5 6 8
32 30 26 23 20 19 17 15 14 13 14 14 13 11 11 10 9 8 7 6 5 4 3 3 3 3 3 4 4 6 9 9 8 4 5 11 8 5 6 5 6 8 10
30 28 25 23 21 18 16 15 15 13 13 12 12 11 9 7 6 5 4 4 4 4 4 4 4 5 5 5 6 7 8 11 10 4 2 9 4 4 4 7 9 9 10
25 25 24 23 20 18 15 14 13 12 11 11 11 9 7 5 4 4 4 4 4 4 4 4 5 5 5 5 6 7 8 10 13 9 11 10 6 5 4 8 11 11 10
23 22 22 21 19 17 15 14 12 11 10 10 8 6 5 5 4 5 4 4 3 2 2 2 3 4 4 5 5 6 7 10 15 14 8 8 7 7 7 9 10 12 12
24 19 20 21 20 18 16 14 12 11 10 8 6 5 6 6 5 5 4 4 2 1 1 2 3 4 4 4 4 5 6 9 16 13 10 8 11 13 7 6 9 11 11
22 22 21 21 19 17 15 13 11 10 8 7 6 7 8 7 5 3 3 2 2 2 3 3 3 2 2 3 5 5 7 9 11 13 10 6 12 12 8 8 10 10 11
17 22 23 20 18 15 13 11 9 8 7 6 8 11 8 4 2 3 4 4 3 2 4 1 2 2 3 3 3 5 8 9 13 13 7 7 6 9 9 11 13 14 12
20 17 18 20 18 17 14 10 6 8 7 6 9 11 5 4 3 1 2 5 5 6 4 4 5 6 6 6 7 6 11 9 11 12 7 10 7 7 9 11 14 15 13
16 18 16 13 14 14 15 10 4 10 9 6 5 7 8 3 3 2 7 5 7 8 5 6 2 3 4 5 5 7 7 10 10 10 10 9 7 7 10 10 12 13 12
21 23 17 16 14 13 12 14 8 8 10 9 4 4 9 9 6 3 6 5 6 5 5 8 2 4 3 8 6 5 5 8 12 14 14 7 2 4 5 7 9 10 10
25 24 21 23 18 16 16 16 12 12 12 10 8 7 7 9 6 6 6 6 8 8 9 4 4 5 4 6 10 7 6 7 7 10 12 5 1 3 2 1 3 5 7
28 25 26 26 24 21 20 19 19 15 12 13 12 9 7 7 6 7 8 8 9 8 10 9 8 7 6 7 11 10 6 6 9 11 12 2 1 2 3 3 1 1 2
31 28 28 30 29 26 28 25 24 21 18 13 13 13 14 8 9 11 10 10 7 5 7 8 14 10 11 13 10 15 14 13 8 20 17 8 4 0 3 4 2 2 1
33 31 31 28 29 25 27 29 26 23 23 13 10 16 11 12 8 6 7 10 11 11 9 12 11 12 9 11 5 9 7 13 10 14 19 11 6 1 3 2 4 3 3
32 31 31 28 25 22 17 26 27 24 20 18 15 16 16 18 13 5 8 7 9 10 14 14 15 12 11 8 9 9 11 8 15 9 10 12 11 5 5 6 5 3 5
28 30 32 29 26 23 20 17 21 19 22 22 19 20 14 23 15 7 9 10 11 16 12 14 11 12 10 8 8 6 12 14 10 6 13 13 16 9 6 7 6 2 4
31 30 33 32 29 25 25 22 19 21 19 16 21 18 13 17 10 10 13 14 10 13 15 11 14 9 8 6 6 3 7 7 9 12 18 11 17 18 13 9 5 4 5
32 33 32 33 31 29 27 26 21 20 21 15 14 14 16 15 15 15 13 13 11 12 10 12 16 10 7 11 7 5 6 10 14 17 14 20 26 21 15 15 9 7 6
37 36 33 32 33 31 30 25 21 20 18 20 19 17 20 20 19 18 17 15 14 13 7 8 11 12 5 2 7 5 5 6 13 12 23 19 25 25 18 16 11 10 8
39 36 34 33 31 35 32 30 25 23 23 22 22 18 21 18 18 17 12 16 14 14 15 10 14 10 8 5 8 6 9 7 8 4 23 19 17 15 17 18 19 15 12
41 39 36 33 30 29 35 32 28 26 25 23 18 17 16 19 21 17 13 15 15 16 17 16 11 10 7 12 11 9 10 9 11 10 11 9 16 16 15 15 18 18 14
42 40 37 35 32 27 31 32 31 27 25 23 21 20 21 20 21 20 19 18 18 18 14 12 13 17 17 16 14 13 9 8 9 11 9 8 13 14 18 19 21 20 17
Wind_Direction
161 152 148 143 135 129 127 127 128 131 130 132 126 124 123 134 137 134 136 138 137 146 154 153 156 154 155 166 181 196 211 206 193 177 154 121 112 133 135 138 129 102 129
152 151 149 146 139 136 130 130 129 129 130 129 126 129 130 132 142 140 137 138 139 141 143 141 142 133 126 119 122 112 145 166 160 149 144 135 128 145 155 150 128 110 136
152 151 151 147 145 139 136 139 137 135 132 129 128 124 125 134 144 144 141 139 134 132 131 137 141 137 138 127 120 106 131 137 146 148 148 135 137 146 171 158 165 149 150
155 153 152 150 148 144 141 140 140 140 136 133 132 130 128 129 129 130 134 136 137 144 148 155 167 153 150 149 147 130 137 144 148 159 110 183 171 155 165 185 182 190 167
153 152 152 152 152 150 147 145 145 142 137 136 138 137 137 138 133 134 138 146 158 180 201 207 217 213 206 197 182 161 153 159 167 174 331 149 194 165 160 196 203 186 180
152 154 154 154 156 154 151 149 144 144 140 142 142 144 144 145 144 149 158 172 179 188 200 206 197 197 192 196 199 197 177 175 166 178 156 183 176 181 163 206 213 204 194
152 157 157 159 158 154 154 151 149 149 150 150 147 150 154 155 153 155 163 160 168 173 186 193 191 188 182 181 187 195 193 189 173 197 192 214 206 195 231 219 217 215 204
146 163 162 160 162 161 161 160 160 158 158 155 152 155 155 141 139 142 141 134 140 154 185 201 208 199 189 184 188 188 189 191 180 179 221 241 243 193 221 210 212 213 216
166 158 169 167 168 167 165 165 168 169 166 159 157 150 142 135 139 136 128 122 125 163 228 251 253 237 237 212 202 201 186 187 186 188 218 223 229 214 210 213 220 222 225
181 180 173 174 173 172 170 170 170 171 166 163 157 149 132 134 121 76 101 69 54 281 297 302 289 289 272 247 228 199 194 197 190 194 215 226 210 223 233 241 244 236 231
168 172 177 178 174 171 169 172 172 172 171 171 163 155 138 140 103 86 70 31 8 310 275 265 258 237 204 197 202 183 198 178 185 192 220 227 251 242 264 251 240 239 233
169 170 182 187 185 180 164 158 160 171 152 161 165 171 161 161 186 123 48 359 5 333 309 245 230 224 223 237 244 211 169 179 194 198 217 227 250 260 264 249 237 236 234
182 180 175 167 171 183 180 180 234 190 180 183 197 199 183 192 219 246 308 299 312 327 271 303 254 173 230 216 176 179 202 203 210 216 227 218 246 275 264 254 241 238 238
187 191 180 182 170 176 201 200 212 207 201 209 260 241 209 218 209 232 281 313 280 283 301 251 9 236 251 228 203 216 212 246 240 241 228 200 164 326 287 252 242 240 234
189 187 191 187 179 190 203 205 220 250 247 222 249 243 243 194 220 225 254 269 275 276 287 316 293 288 274 279 214 224 240 273 263 239 195 168 28 347 340 277 211 228 227
193 195 196 198 193 191 201 207 217 205 201 233 241 255 220 211 222 235 242 251 242 260 277 253 267 293 269 255 239 232 254 264 248 200 223 219 212 20 22 15 42 174 196
198 191 204 207 206 211 203 209 213 201 202 211 227 241 246 249 251 240 234 233 265 245 277 278 272 276 265 246 224 240 219 244 250 210 233 217 195 137 16 27 14 358 334
199 191 201 212 211 218 224 220 221 219 213 210 227 228 235 254 273 257 234 225 237 253 252 261 256 264 283 256 252 243 239 191 190 223 226 219 216 274 336 338 12 352 344
204 194 202 212 219 229 228 227 226 226 208 206 220 242 248 255 254 265 258 223 252 276 249 262 265 258 253 292 324 315 278 176 202 207 207 230 241 263 287 288 333 357 351
207 200 199 210 219 227 234 239 228 217 207 210 225 232 260 251 252 275 245 233 265 258 247 269 261 261 277 309 320 322 237 242 217 266 218 223 213 234 285 272 294 303 318
208 205 202 204 218 222 226 229 229 210 212 216 220 227 261 231 224 240 273 253 254 245 271 273 272 236 252 303 310 64 246 238 254 256 200 221 225 211 229 246 248 299 290
206 207 208 209 212 221 227 231 239 213 207 215 208 220 252 233 251 261 272 251 254 288 231 256 262 251 249 278 295 166 208 234 214 217 234 229 219 217 213 228 252 280 286
207 209 210 212 216 219 227 229 236 216 207 224 233 234 242 243 258 268 268 244 271 269 262 265 277 253 274 281 239 218 197 198 214 221 213 216 218 220 218 220 259 259 261
206 211 215 217 219 219 224 229 223 205 212 223 236 239 241 243 254 268 256 243 254 269 256 257 266 222 230 241 251 263 243 246 225 230 196 211 220 219 224 232 245 243 257
205 208 214 218 223 225 222 227 217 220 224 223 230 236 239 251 256 263 256 232 244 261 261 258 265 250 226 238 232 266 275 253 244 244 223 252 204 217 210 225 246 249 258
204 209 211 216 224 228 220 219 216 217 219 225 226 234 242 246 248 263 255 243 240 253 248 250 265 255 248 245 245 252 257 269 300 254 259 220 229 221 226 221 217 225 226